Regional Weather Roundup
Issued by NWS

Home | Current Version | Previous Version | Text Only | Print | Product List | Glossary Off
Versions: 1 2 3 4 5 6 7 8 9 10 11 12 13 14 15 16 17 18 19 20 21 22 23 24 25 26 27 28 29 30 31 32 33 34 35 36 37 38 39 40 41 42 43 44 45 46 47 48 49 50

000
ASUS45 KBOU 220307
RWRCO

WEATHER ROUNDUP FOR COLORADO
NATIONAL WEATHER SERVICE DENVER/BOULDER CO
800 PM MST FRI NOV 21 2014

NOTE: "FAIR" INDICATES FEW OR NO CLOUDS BELOW 12000 FEET WITH NO
SIGNIFICANT WEATHER AND/OR OBSTRUCTIONS TO VISIBILITY.

COZ001>005-013-030-031-220400-
...NORTHWEST COLORADO...

CITY           SKY/WX    TMP DP  RH WIND       PRES   REMARKS
CRAIG          CLEAR     24  19  81 CALM      30.04S
HAYDEN         CLEAR     28  18  64 SE5       30.04R WCI  23
MEEKER         CLEAR     31  21  66 CALM      30.05R
MOUNT WERNER   NOT AVBL
STEAMBOAT SPGS CLEAR     26  18  71 NW5       30.05R WCI  21
WALDEN         CLEAR     27  14  59 S8        30.04S WCI  18
$$

COZ006>008-011-220400-
...WEST CENTRAL VALLEYS...

CITY           SKY/WX    TMP DP  RH WIND       PRES   REMARKS
GRAND JUNCTION CLEAR     31  17  56 NW3       30.05R
MONTROSE       CLEAR     31  20  63 SE12      30.09R WCI  22
EAGLE          CLEAR     27  21  80 SE6       30.10R WCI  20
RIFLE          CLEAR     32  21  64 CALM      30.07R
DELTA          CLEAR     34  18  52 CALM      30.07R
NUCLA          CLEAR     34  23  64 E7        30.11R WCI  28
$$

COZ017>023-064>068-220400-
...SOUTHWEST COLORADO...

CITY           SKY/WX    TMP DP  RH WIND       PRES   REMARKS
DURANGO        CLEAR     31  19  61 CALM      30.09R
CORTEZ         CLEAR     28  20  71 NE7       30.08R WCI  21
PAGOSA SPRINGS CLEAR     28  18  65 CALM      30.11R
TELLURIDE      PTCLDY    30  18  61 SE6       30.14R WCI  24
WOLF CREEK PAS PTCLDY    19  12  73 SW12      30.16R WCI   7
$$

COZ009-010-012-014-032>034-037-058>063-220400-
...CENTRAL COLORADO...

CITY           SKY/WX    TMP DP  RH WIND       PRES   REMARKS
ASPEN          PTCLDY    25  15  66 S8        30.09R WCI  16
BUENA VISTA    PTCLDY    29  16  59 NW6       30.09R WCI  23
COPPER MTN     CLEAR     25  12  58 SW3       30.13S
BERTHOUD PASS  FAIR      18  14  86 W16G25    30.12S WCI   3
COTTONWOOD PAS PTCLDY    32  10  40 W12G18    30.11R WCI  23
GUNNISON       PTCLDY    19  12  73 NE3       30.15R
KREMMLING      CLEAR     23  18  80 CALM      30.08R
LEADVILLE      PTCLDY    18   8  65 NE5       30.10R WCI  11
MONARCH PASS   PTCLDY    21  10  63 W24       30.24S WCI   4
SALIDA         PTCLDY    37  15  39 W5        30.15R
SUNLIGHT       CLEAR     27  18  69 CALM      30.14S
WILKERSON PASS PTCLDY    27   7  43 W8        30.14S WCI  18
$$

COZ069>075-220400-
...SAN LUIS VALLEY/SANGRE DE CRISTO MOUNTAINS...

CITY           SKY/WX    TMP DP  RH WIND       PRES   REMARKS
ALAMOSA        PTCLDY    24  13  62 N6        30.08R WCI  17
LA VETA PASS   MOCLDY    28  14  54 SW7       30.10R WCI  21
SAGUACHE       PTCLDY    28  18  64 N6        30.10S WCI  22
$$

COZ035-036-038>040-220400-
...NORTHERN COLORADO FRONT RANGE...

CITY           SKY/WX    TMP DP  RH WIND       PRES   REMARKS
DENVER INTL AP PTCLDY    36  24  62 SW7       29.97R
DMNS CITY PARK   N/A     41  19  41 S7        29.97F
AURORA         PTCLDY    38  22  52 SW7       29.99R
FRONT RANGE AP NOT AVBL
ERIE MUNI ARPT CLEAR     33  22  65 SW7       29.96S WCI  26
BOULDER MUN AP CLEAR     48  18  29 W9        29.96S
CENTENNIAL     PTCLDY    36  21  54 S8        29.99R
BROOMFIELD     PTCLDY    41  16  36 W5        29.97S
FORT COLLINS   CLEAR     37  27  65 N3        29.96S
LONGMONT       CLEAR     36  27  69 CALM      29.97S
$$

COZ041-046-047-076>085-087-088-220400-
...PIKES PEAK/PALMER DIVIDE AND SOUTHERN FOOTHILLS...

CITY           SKY/WX    TMP DP  RH WIND       PRES   REMARKS
COLO. SPRINGS  MOCLDY    33  19  56 N8        30.02R WCI  26
A. F. ACADEMY  PTCLDY    28  14  55 N9        30.02R WCI  20
ELLICOTT       LGT RAIN  32  19  58 E6        30.00S WCI  26
FALCON         NOT AVBL
FORT CARSON    PTCLDY    37  21  52 NW5       30.00R
LIMON          PTCLDY    23  16  74 N7        29.99R WCI  15
MONUMENT HILL  PTCLDY    28  18  64 S8        30.02S WCI  20
TRINIDAD       MOCLDY    35  25  66 W10       29.99S WCI  27
$$

COZ042>045-048>051-090-091-220400-
...NORTHEAST COLORADO...

CITY           SKY/WX    TMP DP  RH WIND       PRES   REMARKS
GREELEY ARPT   CLEAR     28  18  64 N3        29.96S
AKRON          CLEAR     36  19  50 SW10      29.93S
BURLINGTON     PTCLDY    34  18  52 W12       29.95R WCI  25
WRAY           PTCLDY    34  21  58 SW7       29.92S WCI  28
STERLING       CLEAR     34  23  64 S7        29.93R WCI  28
HOLYOKE        PTCLDY    32  21  64 W10       29.92R WCI  24
FORT MORGAN    CLEAR     35  19  50 W9        29.95R WCI  28
$$

COZ086-089-092>099-220400-
...SOUTHEAST COLORADO...

CITY           SKY/WX    TMP DP  RH WIND       PRES   REMARKS
PUEBLO         MOCLDY    38  28  67 NW6       29.98R
LA JUNTA       MOCLDY    37  29  72 N3        29.97R
LAMAR          CLOUDY    36  29  75 CALM      29.94R
SPRINGFIELD      N/A     35  27  72 SW5       29.96F WCI  31
$$


USA.gov is the U.S. government's official web portal to all federal, state and local government web resources and services.